Tracking 23731 objects as of 27-Sep-2021
HD Live streaming from Space Station
objects crossing your sky now

SPARK 2

Track SPARK 2 now!
10-day predictions


NORAD ID: 41901
Int'l Code: 2016-081D
Perigee: 697.4 km
Apogee: 733.8 km
Inclination: 98.3 °
Period: 98.9 minutes
Semi major axis: 7086 km
RCS: Unknown
Launch date: December 21, 2016
Source: People's Republic of China (PRC)
Launch site: Jiuquan Satellite Launch Center, China (JSC)

SPARK 2 is a secondary payload designed for high-resolution and hyperspectral remote sensing of Earth.
aabbcc
Your satellite tracking list
Your tracking list is empty




NASA's NSSDC Master Catalog

Two Line Element Set (TLE):
1 41901U 16081D   21269.75633874  .00000065  00000-0  25745-4 0  9992
2 41901  98.3216 211.3386 0025703 238.8991 120.9688 14.55287810253035
Source of the keplerian elements: AFSPC